Theta_e
352 352 352 353 353 353 354 354 354 353 354 355 356 356 357 358 358 357 357 357 356 355 353 351 349 347 343 339 336 335 334 332 331 330 330 331 330 328 330 332 338 343 342 337 333 332 333 335 338 339 340 341 341 340 340 340 341 341 343 344 344 343 344
352 352 352 353 353 353 353 353 353 353 353 354 356 357 358 359 358 359 358 358 357 355 353 350 348 346 341 338 336 335 334 332 331 330 330 331 331 329 329 330 332 337 339 337 334 333 334 335 336 336 337 338 340 342 341 341 341 340 341 343 345 343 342
352 351 352 352 354 352 352 352 352 352 352 352 355 356 357 359 359 359 359 358 358 356 354 351 348 345 341 338 337 334 333 333 331 330 329 329 330 330 330 330 329 332 337 339 338 336 335 335 335 336 336 337 337 339 339 340 341 340 339 341 344 345 343
351 350 350 351 352 351 351 351 349 350 352 352 354 355 357 359 359 359 360 359 359 357 355 352 349 346 343 340 339 336 334 333 331 330 329 329 329 330 330 330 330 331 334 337 340 338 338 336 336 335 336 336 336 336 337 338 339 340 339 339 341 343 343
349 350 350 349 352 352 353 352 351 350 351 351 352 353 355 358 359 360 360 360 359 358 355 353 350 348 346 344 341 337 333 331 331 330 329 329 329 330 330 331 331 331 332 335 338 339 339 339 337 336 336 336 336 336 335 336 337 339 340 340 341 341 341
349 349 350 351 351 352 353 353 353 352 352 352 352 353 355 358 358 359 360 360 360 359 357 355 353 351 349 346 342 338 335 332 331 331 331 330 331 330 330 330 330 330 331 333 336 338 339 339 339 338 336 336 336 336 335 335 335 336 337 339 341 341 341
349 349 350 351 350 352 352 352 353 352 353 353 354 355 356 357 359 359 360 360 359 360 359 356 354 352 349 346 341 338 336 334 332 331 331 331 331 330 329 329 330 331 331 332 334 336 338 339 339 338 338 337 337 336 335 335 334 334 335 337 339 341 342
350 348 349 350 350 351 351 351 352 352 353 355 356 357 357 357 359 359 359 360 360 360 359 357 355 352 349 346 343 339 337 335 332 332 332 332 331 330 329 329 330 330 332 332 333 334 336 338 338 339 340 341 339 337 336 335 335 335 335 335 336 338 340
350 348 347 348 348 349 349 350 352 354 354 356 357 359 358 358 359 359 360 360 360 360 359 358 356 353 351 349 346 342 339 338 335 334 334 334 332 330 329 329 329 329 331 332 332 333 334 336 338 339 341 342 342 340 338 336 336 336 336 336 336 336 338
349 348 347 347 347 348 349 348 352 355 356 357 359 360 361 361 361 361 361 361 361 360 359 359 358 355 353 350 347 345 343 341 339 337 337 336 334 332 331 330 330 331 331 331 332 333 333 334 337 340 341 341 342 342 340 338 336 336 337 336 337 338 337
347 348 348 348 347 348 348 348 351 353 355 358 361 362 362 363 363 362 362 362 362 362 361 360 359 358 355 351 348 346 346 344 342 340 339 337 334 333 332 333 332 333 332 333 333 334 334 334 336 340 342 341 340 340 340 339 337 336 336 336 337 338 338
348 348 348 348 347 347 346 348 350 350 352 356 360 364 364 364 364 363 362 363 362 363 362 362 361 360 358 355 351 349 346 344 343 342 340 337 336 334 333 334 334 334 334 335 335 334 335 336 337 338 340 341 340 339 339 339 339 337 337 336 336 336 338
347 348 348 348 347 348 349 351 353 354 356 359 361 364 364 365 364 364 364 363 363 363 364 364 364 363 362 359 356 352 348 344 342 340 338 336 335 334 335 335 336 336 336 337 337 337 337 338 338 338 338 339 340 341 340 339 340 339 338 338 338 337 336
348 347 348 348 347 349 352 355 356 359 361 363 364 364 365 365 365 364 364 363 364 363 364 365 365 365 364 362 359 356 351 346 342 339 338 337 336 335 335 335 336 337 338 338 338 339 338 338 338 338 338 339 340 342 342 342 341 341 340 339 339 339 338
348 346 347 349 347 350 354 355 358 361 363 364 364 364 365 365 366 366 365 364 364 364 365 366 367 366 365 364 362 360 355 350 345 343 340 339 338 337 336 335 336 337 338 339 339 338 339 339 339 339 339 340 342 343 344 344 343 341 340 339 339 339 339
348 348 349 348 346 349 351 350 352 355 360 364 365 365 365 365 366 366 365 365 365 364 365 366 367 367 366 366 364 362 360 355 351 347 344 342 340 338 338 338 337 338 339 339 338 338 339 340 341 341 341 341 342 344 345 345 344 342 340 339 338 338 339
350 354 356 350 347 349 349 350 351 353 358 362 364 364 365 365 367 366 366 366 365 366 365 366 367 367 367 366 365 364 363 360 356 352 348 346 342 341 339 339 339 340 340 340 340 339 340 342 343 343 343 344 344 344 345 345 344 342 341 340 339 339 338
348 351 357 356 352 350 349 349 352 355 360 363 364 365 364 364 366 367 366 367 366 367 367 366 367 368 367 367 366 365 364 363 360 357 353 349 346 343 341 340 341 341 342 342 342 343 343 344 344 344 346 347 348 347 346 345 343 343 343 343 342 341 341
343 339 345 354 355 355 354 353 352 356 361 364 364 364 364 364 365 366 366 366 366 367 367 367 367 367 367 368 367 366 365 364 362 360 357 354 350 346 344 344 344 343 343 344 343 345 346 346 347 348 348 349 350 351 349 346 344 345 346 345 345 344 343
345 340 337 342 347 348 350 352 352 356 362 366 366 364 363 363 363 365 366 365 366 366 367 367 367 366 367 368 367 367 366 365 363 362 361 359 355 351 349 347 346 345 344 345 345 346 347 348 349 350 350 350 350 352 351 348 345 346 346 346 347 347 346
340 339 335 337 340 340 339 338 338 344 349 355 359 363 364 365 364 364 364 364 365 367 366 366 366 367 367 367 367 367 366 365 365 363 362 362 358 356 354 350 348 347 346 346 345 345 346 346 347 348 349 351 350 351 352 349 345 345 346 346 346 348 350
345 344 345 348 347 347 347 341 337 341 345 347 351 354 356 360 361 363 363 363 363 364 365 366 366 365 366 367 367 367 366 365 366 364 363 362 361 359 357 354 352 350 348 347 346 346 346 346 346 347 347 348 349 350 352 350 347 345 345 345 346 349 353
358 358 361 362 359 359 360 355 352 354 354 351 354 356 354 353 354 356 358 359 362 362 363 363 364 365 364 365 365 366 367 366 365 365 364 364 363 361 359 358 356 353 351 350 349 348 347 346 346 346 345 347 348 349 349 348 348 347 347 346 348 351 355
359 360 359 356 355 354 353 353 352 353 352 347 347 352 356 358 355 354 354 354 356 360 361 361 362 363 363 364 364 365 366 367 366 366 365 364 364 362 362 360 359 357 355 353 351 350 347 346 345 346 347 347 346 346 346 346 346 348 350 351 353 355 357
358 356 353 350 348 344 341 341 339 339 339 334 329 336 347 356 359 360 359 356 352 355 358 359 359 361 362 362 362 363 364 366 366 366 366 365 364 364 363 362 361 361 359 357 355 352 350 348 348 348 347 348 347 346 347 347 347 349 352 354 356 359 360
356 355 352 352 351 347 344 344 341 337 332 331 328 330 337 348 356 359 360 360 357 354 352 351 351 355 359 361 362 362 363 364 366 367 366 366 365 364 364 364 363 363 362 360 358 356 355 353 352 351 350 349 349 349 350 350 351 353 355 357 358 359 361
356 353 352 353 352 348 343 342 340 337 337 340 339 335 334 339 347 353 356 358 360 360 355 351 349 350 354 359 360 361 361 362 363 365 366 367 366 364 365 365 365 364 364 363 361 359 358 356 355 355 355 354 353 353 353 353 355 356 358 359 359 360 361
354 352 351 349 348 345 339 337 336 333 338 344 344 342 344 343 341 343 347 351 356 360 361 359 356 353 352 356 358 360 360 360 362 364 366 367 366 365 365 365 366 366 365 365 364 363 362 360 359 359 359 359 359 358 358 358 358 359 360 360 361 361 361
353 352 350 346 345 344 342 339 338 341 346 345 340 343 355 356 349 345 345 346 349 355 360 361 361 357 356 356 358 359 360 360 361 363 364 366 365 364 364 365 366 366 367 366 365 365 364 363 363 361 361 362 363 362 363 362 362 362 362 362 363 364 364
351 351 349 349 353 354 351 349 350 354 357 353 344 346 356 358 355 354 353 350 350 354 360 363 362 361 359 359 360 360 359 360 361 363 363 365 364 364 364 365 366 366 367 366 366 366 365 365 364 363 362 363 363 364 365 365 365 365 365 365 366 366 367
349 349 349 353 358 357 354 356 358 360 361 360 356 359 363 361 358 358 360 359 357 357 360 362 363 362 362 362 362 361 361 360 361 363 364 364 364 364 365 365 366 367 367 367 367 366 366 365 365 364 363 362 363 363 364 365 366 366 366 366 367 367 366
348 348 348 353 358 356 353 357 361 361 361 361 359 363 367 366 362 362 364 363 362 360 360 361 362 362 361 362 362 362 361 361 361 363 365 364 364 366 366 366 367 367 367 367 367 367 366 367 366 366 365 364 363 363 364 365 366 365 366 365 366 365 365
348 347 347 350 354 354 355 357 360 360 360 360 360 361 364 366 367 367 367 367 366 363 362 361 361 361 362 363 363 362 361 361 361 364 365 366 367 367 367 367 367 367 367 367 367 367 368 367 367 367 367 366 365 365 365 366 366 365 365 365 364 364 364
347 348 348 350 353 355 356 357 358 359 357 358 358 358 360 364 368 368 368 369 367 365 364 362 361 362 362 363 364 363 362 362 363 366 367 368 369 368 368 368 368 367 367 368 367 368 368 368 369 369 368 368 367 366 366 366 366 365 365 364 364 364 364
346 348 350 352 354 355 356 356 356 356 355 355 355 356 358 361 363 366 367 368 366 366 366 365 364 364 364 365 365 363 363 363 365 368 368 368 369 369 368 369 368 368 367 367 368 368 368 368 369 368 368 368 367 367 367 366 366 365 364 364 364 364 364
345 348 351 352 353 354 355 355 354 354 354 353 353 356 359 360 360 363 364 364 365 366 367 367 367 367 365 365 364 363 364 365 366 367 368 368 368 368 368 369 369 368 368 367 368 368 368 368 368 367 367 367 366 365 365 365 365 364 364 364 363 363 362
344 347 350 351 353 354 354 353 353 352 352 352 351 353 357 360 360 361 361 362 363 364 366 368 369 367 367 366 366 366 365 366 366 367 367 368 368 367 367 369 369 369 368 368 368 367 367 367 366 365 365 364 364 364 364 364 364 364 362 361 359 357 355
343 346 348 350 352 354 353 352 351 350 350 350 350 351 355 358 359 359 360 362 364 365 365 365 367 367 367 367 367 368 367 367 366 367 367 367 367 367 366 368 368 367 366 366 366 367 366 366 365 365 364 363 363 364 363 363 361 359 355 351 347 344 342
Wind_Speed
43 44 44 45 46 46 48 50 51 51 50 48 48 48 46 46 47 47 48 49 49 50 50 51 50 48 46 44 42 40 38 37 37 36 35 34 34 33 32 31 31 31 29 27 25 23 21 20 19 18 17 17 17 18 18 18 17 17 17 17 16 16 15
43 44 45 46 47 48 49 50 50 52 52 49 48 48 47 47 48 48 49 49 50 50 50 51 51 50 48 45 43 42 40 39 38 38 36 35 34 33 33 31 31 31 31 29 27 25 23 22 21 19 18 18 18 18 18 18 18 17 18 19 19 18 17
43 45 46 47 48 48 49 49 49 51 52 51 49 49 50 50 50 50 49 49 50 50 50 51 52 51 49 47 45 43 42 41 40 39 38 37 35 35 34 32 32 32 31 31 29 27 25 24 22 20 19 19 18 18 19 19 19 18 18 19 20 19 18
45 45 46 46 47 47 47 48 49 51 52 52 52 53 53 51 50 49 48 48 49 50 51 52 52 52 50 49 47 45 43 42 41 40 39 38 37 36 35 34 33 32 32 31 30 29 27 25 24 22 21 20 19 19 19 19 20 20 19 20 21 21 20
44 45 45 43 44 45 45 47 49 50 51 52 54 54 52 49 48 47 47 47 48 49 50 51 51 52 51 50 48 46 44 43 42 41 40 39 38 37 37 36 35 34 33 31 30 29 28 27 25 24 22 22 21 20 20 20 20 20 20 21 22 22 23
41 42 43 43 44 46 46 47 48 49 50 51 52 52 50 49 48 48 48 47 47 48 48 50 51 51 52 51 49 47 45 44 43 42 41 41 40 39 38 37 36 35 34 33 31 29 28 27 26 25 24 23 22 22 21 21 21 21 21 21 22 23 24
43 42 43 44 46 48 48 47 47 47 48 48 48 49 48 49 48 48 48 47 47 48 48 50 52 52 53 52 50 49 47 46 44 43 43 42 42 41 39 38 38 37 36 34 33 31 29 28 27 26 25 24 24 24 23 23 23 22 22 22 23 23 24
48 45 44 45 45 47 47 46 46 46 45 44 45 47 48 49 48 48 49 49 49 49 49 51 52 53 54 53 52 50 48 47 45 44 44 43 43 42 40 40 39 38 37 36 35 33 32 30 29 28 27 27 26 25 25 25 24 24 23 24 24 25 25
46 46 46 46 45 45 45 46 45 44 45 44 45 48 49 49 49 50 50 50 50 51 51 51 52 53 54 54 53 52 50 48 47 46 46 45 44 43 42 41 40 39 39 38 36 35 34 32 31 30 30 29 28 28 27 26 26 25 25 25 25 26 27
42 45 46 45 45 43 43 45 44 44 45 45 45 47 48 49 50 50 50 50 50 52 52 51 51 52 53 54 53 52 51 50 49 48 47 47 46 44 43 42 41 40 40 38 37 36 35 34 33 32 31 31 31 30 29 28 28 27 27 27 26 26 27
44 46 47 45 43 41 41 41 43 45 47 47 46 46 48 49 48 48 49 50 50 50 51 51 51 51 52 53 53 52 51 50 49 49 48 48 47 45 44 43 42 41 40 39 39 38 37 36 35 34 33 33 33 32 31 31 30 29 29 29 28 28 27
45 47 48 45 42 42 41 40 42 45 47 48 48 46 47 47 47 47 47 47 48 48 48 49 49 50 51 52 53 52 52 51 51 50 49 48 47 46 45 44 43 42 41 41 40 38 38 37 36 35 35 34 34 33 32 32 31 31 30 30 30 30 30
40 43 47 47 45 43 43 42 43 44 45 47 48 46 46 46 46 46 45 46 46 46 46 46 47 48 49 50 52 52 53 52 52 51 49 48 47 46 46 45 44 43 42 41 40 40 39 38 37 36 36 35 35 34 33 33 32 32 32 32 32 32 32
38 39 44 47 47 46 46 46 45 45 44 45 47 45 44 45 45 45 45 45 46 45 44 44 45 47 48 49 51 52 53 53 51 50 49 48 47 47 46 46 45 44 43 42 41 40 40 39 38 37 37 36 36 35 35 34 34 34 34 33 33 33 34
39 34 34 40 46 47 48 48 45 45 46 46 47 46 45 44 45 45 45 45 45 45 44 43 43 45 47 48 50 51 52 52 51 50 49 48 48 47 47 46 45 44 44 43 42 41 40 40 40 39 39 38 37 36 36 36 37 36 35 35 35 35 35
32 27 26 34 42 43 46 47 46 46 46 46 48 48 46 45 45 45 45 45 45 45 44 43 43 44 45 47 48 49 50 50 51 50 50 49 49 48 47 46 46 45 44 44 43 42 41 40 40 41 40 39 38 38 38 39 39 38 37 36 35 35 35
24 24 24 31 36 36 39 42 43 45 46 46 48 48 46 45 44 45 45 45 45 45 44 43 43 43 45 46 46 47 47 48 49 50 50 50 49 48 47 46 46 45 45 44 43 42 41 40 40 40 41 40 40 39 39 40 40 39 39 37 36 36 36
25 25 25 27 28 29 31 33 36 40 42 44 46 46 46 44 42 43 44 44 45 44 44 44 43 44 44 45 45 45 45 46 46 48 49 49 49 48 47 46 46 46 45 44 44 43 41 40 40 39 39 39 39 39 39 38 38 38 39 38 37 36 36
20 22 25 27 26 25 25 27 30 34 36 39 42 42 43 42 41 41 42 43 43 42 42 43 43 43 43 44 44 44 45 45 45 45 47 47 48 48 47 47 47 47 46 45 44 43 42 41 40 39 38 38 39 39 38 37 36 37 37 37 36 35 35
19 22 24 25 23 22 22 22 22 24 28 31 35 37 38 38 38 38 38 39 40 40 41 42 43 43 43 43 44 44 44 44 44 44 44 44 45 46 47 47 47 46 46 45 44 43 43 42 41 40 39 39 39 39 39 37 37 36 36 35 35 34 35
18 19 20 21 19 18 18 20 20 19 20 22 25 29 32 33 34 34 33 34 37 39 40 40 42 44 43 42 43 44 44 44 44 43 43 43 43 44 45 46 46 46 46 45 45 44 44 43 42 41 41 41 41 41 41 39 38 36 36 35 34 33 34
18 15 17 19 18 15 15 18 19 17 16 16 17 20 23 26 29 32 32 32 33 35 37 38 40 42 43 42 42 43 45 44 43 43 43 43 43 43 44 45 45 45 45 45 45 45 44 44 43 43 43 43 42 42 42 42 40 38 37 36 35 34 35
25 25 25 24 23 21 18 19 19 16 16 16 16 17 18 19 22 25 29 31 33 33 34 36 39 41 42 43 41 41 42 44 44 43 43 42 43 43 44 44 44 44 44 45 45 46 45 45 44 44 44 44 43 43 44 43 42 41 40 38 37 36 37
25 25 24 22 21 21 19 18 18 17 17 15 14 16 18 18 20 21 22 26 31 34 35 36 38 39 41 43 42 40 39 41 43 44 43 43 43 43 43 43 43 43 43 44 45 46 46 45 45 45 45 45 44 44 44 44 43 42 42 41 40 39 39
21 19 19 18 16 16 14 12 10 10 11 9 9 14 18 19 20 23 24 23 25 30 35 38 39 40 40 41 42 41 38 38 41 43 43 43 42 42 42 41 41 41 42 43 44 44 45 45 45 46 46 46 46 45 45 45 44 43 43 43 41 40 38
17 16 18 18 15 14 13 11 9 6 4 2 4 10 18 20 20 22 25 26 26 27 30 34 37 38 39 39 40 41 39 37 38 41 42 42 41 41 40 40 39 40 40 41 42 42 43 44 44 45 45 46 46 46 46 46 45 44 43 42 41 40 38
16 15 16 15 13 12 13 12 12 9 5 2 3 5 12 19 22 22 22 24 28 30 30 29 30 32 35 37 38 40 40 38 37 38 40 41 39 39 39 39 38 39 39 39 40 41 42 43 43 43 43 43 44 44 45 45 45 43 42 41 40 40 39
18 16 15 13 12 13 14 14 14 12 8 4 6 7 7 13 20 23 22 22 26 30 30 29 28 28 30 33 35 38 39 38 36 36 37 38 38 37 38 38 37 37 37 38 39 40 40 41 42 42 42 41 41 41 40 40 40 40 40 39 38 37 37
19 18 18 17 14 13 12 11 11 11 8 6 8 10 10 11 15 19 22 24 26 25 25 27 29 28 27 28 30 33 36 36 35 35 35 36 36 36 37 37 36 35 36 37 38 38 39 39 40 41 41 39 37 36 35 34 33 32 31 30 30 29 29
18 18 18 16 13 12 10 7 7 7 7 8 7 6 9 11 13 16 19 21 23 22 20 23 27 27 26 26 27 29 32 34 34 33 34 35 34 35 36 36 34 34 34 35 36 37 37 38 38 39 40 39 36 33 30 28 25 24 24 24 24 23 23
19 18 16 13 12 11 9 5 6 5 5 6 5 0 3 7 11 14 15 16 18 18 18 20 24 25 24 24 24 25 28 31 32 32 32 32 33 34 35 34 33 33 33 33 34 35 36 36 35 36 36 37 36 33 28 24 21 22 24 24 24 22 21
19 19 18 13 11 11 8 4 6 5 2 1 1 1 2 5 8 10 10 12 14 16 18 19 21 24 23 22 22 24 26 28 30 30 29 29 31 32 32 32 31 32 32 32 33 34 34 33 33 32 31 32 33 32 28 24 24 25 26 26 24 23 22
21 21 20 16 13 13 9 5 6 6 3 3 3 3 3 4 6 7 8 10 12 14 17 19 21 23 22 20 21 23 25 26 28 28 27 26 27 28 29 29 29 30 30 31 32 32 32 31 31 30 29 28 28 27 26 25 26 27 26 25 25 25 25
20 20 19 17 14 12 9 6 5 6 5 5 5 6 5 4 5 7 9 11 11 11 14 17 20 21 20 20 21 23 24 25 26 26 24 24 25 26 27 27 27 28 29 31 31 30 30 30 29 27 27 27 25 25 26 27 26 26 25 24 24 24 24
18 17 17 15 12 9 8 7 7 7 8 8 8 7 6 5 6 8 10 12 13 12 11 13 15 17 18 19 21 22 23 24 24 23 23 24 26 26 26 26 27 28 28 28 28 28 28 28 27 25 23 23 23 24 26 27 26 24 23 22 21 21 21
17 16 15 15 12 8 7 7 8 8 8 7 6 6 5 5 6 8 9 12 15 13 11 11 13 14 16 18 19 20 22 23 23 24 24 26 26 26 26 26 26 27 27 26 26 26 25 25 25 24 23 22 22 22 22 23 24 22 20 19 18 17 18
15 16 16 15 12 8 7 8 7 7 7 7 7 7 6 5 5 6 6 10 13 13 12 13 14 15 16 17 17 18 20 22 25 26 26 26 27 26 26 27 26 25 25 25 25 24 23 22 23 23 23 22 22 22 20 20 19 17 15 14 14 14 15
13 14 16 15 11 7 7 7 6 7 8 8 7 7 6 4 4 5 6 8 11 13 14 15 16 17 18 17 18 20 21 23 25 27 26 26 26 26 26 27 27 24 21 21 22 22 22 22 22 23 22 21 20 20 18 16 15 13 12 11 11 12 14
Wind_Direction
179 183 186 188 188 188 190 192 191 191 192 194 196 198 199 200 202 204 206 207 209 209 208 207 208 210 213 215 217 217 217 215 213 213 213 213 215 217 218 214 211 212 216 220 222 223 224 223 221 219 218 217 216 218 219 219 220 217 217 220 223 225 226
177 183 186 187 188 188 191 193 192 191 192 194 197 198 199 201 202 205 207 208 210 210 209 208 209 211 214 216 217 218 218 216 214 214 215 215 216 218 220 218 216 215 217 221 224 225 226 227 227 225 224 222 219 220 221 220 221 219 218 220 223 227 227
178 182 186 187 187 189 192 195 194 194 194 195 197 199 201 203 204 205 207 209 210 211 211 210 210 212 215 217 217 218 218 217 216 215 216 217 217 218 220 221 220 219 219 220 222 224 226 228 229 229 228 228 225 225 225 224 224 222 219 219 224 229 231
180 182 185 186 188 191 193 196 197 197 197 198 199 201 203 204 204 205 207 209 210 211 212 212 212 213 214 216 217 218 219 218 218 217 217 218 218 218 219 221 222 222 221 221 221 222 224 227 229 229 230 231 231 230 229 228 226 223 221 221 224 229 234
178 181 184 184 187 190 192 195 197 197 198 200 202 203 203 203 204 205 208 210 212 213 214 214 214 213 214 216 217 218 220 220 220 219 218 218 218 218 219 221 223 224 224 224 223 222 222 224 227 228 230 232 233 234 233 233 230 225 223 223 225 228 232
176 178 181 182 183 187 191 194 196 197 198 200 202 202 202 203 205 206 208 210 213 215 215 215 215 214 214 216 218 219 220 221 221 221 220 218 218 219 220 222 224 225 226 226 225 225 224 225 225 226 228 231 233 235 236 236 234 231 228 226 228 230 230
178 178 179 180 183 187 190 193 195 197 198 199 200 200 200 203 205 206 208 211 214 215 216 216 216 215 216 218 219 221 221 221 221 221 221 220 219 220 222 222 223 225 227 228 227 227 227 227 228 228 229 230 232 235 237 238 237 236 233 230 231 233 234
179 181 180 182 185 188 190 192 195 197 196 196 197 199 201 203 204 206 209 212 214 216 217 217 217 217 217 218 219 221 222 222 222 222 222 221 221 222 223 223 224 225 226 227 229 229 228 229 230 231 231 231 232 235 237 240 240 239 237 235 234 235 236
177 181 184 186 188 190 191 193 194 195 195 195 197 199 200 201 204 207 210 212 213 216 218 218 218 218 218 218 219 221 222 223 223 222 222 222 222 223 224 224 224 225 225 227 229 230 230 230 230 231 232 233 233 234 236 239 241 241 241 240 238 238 238
172 180 185 188 189 190 193 193 193 193 193 194 197 199 200 201 205 207 209 211 213 216 218 218 219 218 218 218 220 221 221 222 223 223 222 222 223 225 225 226 225 225 226 227 228 229 232 232 231 230 231 233 234 235 236 238 241 242 243 243 243 242 241
171 179 184 186 190 191 192 192 193 195 196 195 196 199 201 203 205 207 209 211 213 216 218 218 218 218 218 219 220 220 221 222 223 223 223 224 224 226 227 226 227 226 226 227 228 229 231 233 232 231 231 233 235 237 237 238 241 243 243 245 246 245 244
172 176 181 185 187 190 192 192 194 197 198 198 198 200 203 204 205 207 209 211 213 215 217 217 218 218 218 219 220 220 221 222 223 224 225 226 226 227 227 227 227 228 227 227 228 229 231 231 232 233 232 234 235 237 239 240 241 244 245 246 247 247 247
175 174 179 184 185 186 190 191 192 195 196 198 199 201 204 205 205 206 208 210 212 214 216 217 217 217 218 219 220 221 221 222 224 225 227 228 228 228 228 227 227 227 228 228 228 228 230 231 232 234 235 236 236 237 240 242 243 245 246 247 247 248 248
180 178 178 181 182 183 185 187 190 193 196 199 200 201 204 205 205 205 207 209 211 212 215 217 217 218 219 220 220 221 222 223 225 227 228 229 229 229 229 228 228 228 229 229 229 228 230 231 233 235 237 238 238 238 240 242 243 245 245 245 246 247 248
181 181 178 178 179 181 183 186 188 192 196 199 200 201 203 205 205 206 207 209 210 211 214 216 217 218 218 220 221 222 223 224 226 227 228 228 228 228 228 229 229 228 228 230 231 231 231 232 233 235 237 238 239 240 240 241 243 245 245 245 245 245 247
172 172 172 177 179 179 182 187 191 194 196 199 200 200 202 203 205 206 207 209 210 211 213 214 217 218 218 220 222 223 224 224 225 226 226 227 228 228 228 228 228 228 228 230 232 234 233 232 232 233 235 237 238 240 241 242 244 245 247 247 246 246 247
137 139 152 170 176 177 181 186 189 193 195 198 199 200 201 203 205 206 207 208 210 211 212 213 216 218 219 221 223 224 224 225 225 225 225 226 227 228 228 228 227 228 228 229 231 233 234 232 232 233 234 235 237 239 242 244 245 246 247 248 248 247 247
125 124 134 152 166 174 181 185 189 193 195 197 199 199 200 203 204 206 207 209 211 212 211 213 216 219 221 222 223 224 225 226 226 226 226 226 226 227 228 228 227 227 227 228 230 231 232 233 233 233 234 234 236 238 241 245 247 248 248 248 248 248 248
140 142 139 146 157 168 179 187 192 196 197 196 197 199 201 203 205 208 210 211 212 213 212 213 216 220 223 223 223 224 226 227 227 227 227 227 226 227 228 227 226 226 227 228 229 229 231 232 233 233 233 235 236 237 240 246 249 249 249 249 249 249 248
125 137 137 141 149 156 164 173 180 189 195 196 198 200 201 203 207 210 213 213 214 215 215 215 216 219 223 224 223 225 226 227 228 229 229 229 228 227 227 227 227 227 227 227 227 228 229 231 233 233 233 235 238 239 241 246 250 250 251 251 251 250 249
106 125 133 139 147 153 158 163 164 171 183 190 196 201 203 206 208 211 214 216 216 217 217 218 218 220 223 224 224 225 225 226 228 229 230 230 229 228 228 228 228 227 227 227 227 228 229 230 232 234 234 236 238 240 242 246 250 251 252 253 253 252 251
85 107 121 129 138 146 160 170 166 163 171 180 187 195 201 206 211 214 216 217 218 219 219 220 220 221 223 225 226 225 225 226 227 229 230 230 229 229 228 228 228 228 227 226 227 228 229 230 231 233 235 236 237 239 242 245 248 250 252 254 254 254 252
82 95 103 109 117 125 141 158 160 162 171 175 181 190 197 202 209 215 219 220 220 220 220 221 222 223 224 225 227 227 226 226 226 227 228 229 229 230 230 229 229 229 228 227 226 226 227 229 231 232 234 236 237 239 241 244 247 249 250 252 252 252 252
78 89 93 94 102 111 123 141 151 162 172 173 179 188 194 201 208 215 220 222 222 222 223 224 224 225 226 226 228 229 228 228 227 226 228 229 230 230 230 230 230 230 230 229 228 227 228 229 230 231 233 235 237 240 242 244 247 248 249 250 250 250 251
66 69 68 66 74 80 88 107 126 150 171 188 196 190 188 194 203 213 220 224 224 223 224 226 227 227 228 228 229 229 230 230 228 227 227 228 230 231 231 231 232 231 231 231 230 229 229 229 230 231 232 234 237 240 242 244 247 247 247 248 248 249 251
55 51 50 46 41 42 54 67 65 73 109 192 219 200 196 196 197 206 217 223 225 226 227 228 229 229 229 230 230 230 231 231 230 228 227 227 229 231 232 232 232 231 231 231 232 231 230 229 230 232 233 235 236 239 241 244 246 246 246 247 247 248 251
46 42 44 43 29 15 17 18 14 18 29 6 278 232 212 207 207 209 214 220 225 229 233 234 232 232 231 231 231 231 231 232 231 229 228 227 228 231 232 233 232 231 231 231 231 232 231 230 230 232 234 236 237 239 241 243 245 246 247 248 249 249 250
35 30 28 28 15 356 352 352 349 349 352 316 270 260 235 219 218 218 219 223 225 229 236 238 236 236 234 232 232 232 231 232 231 230 228 226 227 229 231 232 231 231 232 232 232 233 232 231 231 232 234 237 238 240 242 244 246 247 248 250 252 252 253
31 23 18 17 10 358 355 353 342 335 329 302 271 254 240 234 231 227 226 227 227 230 236 237 236 237 235 233 233 233 232 232 231 229 227 225 226 229 231 232 231 231 232 232 232 233 233 233 233 232 233 235 238 241 244 246 248 249 251 253 253 253 254
26 18 17 21 21 10 4 4 358 344 327 318 307 262 241 242 239 235 232 229 230 233 235 234 233 233 234 233 232 232 232 232 230 228 226 225 226 229 230 231 231 232 232 232 232 233 233 234 234 233 233 233 235 238 242 245 248 250 253 255 255 255 255
17 15 15 22 24 8 357 10 21 5 337 334 346 329 254 259 241 232 232 231 231 232 231 229 227 227 230 232 230 229 229 230 229 227 225 225 226 227 229 230 230 231 231 231 231 232 233 233 234 234 234 233 233 234 236 238 240 241 243 246 247 249 251
8 6 3 8 12 358 349 12 12 345 291 292 333 186 257 265 239 227 226 228 230 228 223 223 224 225 228 230 228 226 225 226 227 225 223 224 226 227 229 229 229 229 229 229 229 230 231 231 232 232 233 233 232 231 231 230 232 234 237 239 242 244 246
1 356 352 351 349 340 336 353 356 330 282 249 252 247 254 242 219 210 210 215 222 222 219 219 220 222 225 226 223 221 220 222 224 221 219 221 224 226 228 229 229 229 228 227 227 227 227 229 230 230 230 230 229 228 227 228 231 233 236 239 242 244 245
350 345 342 340 336 332 331 335 338 326 303 285 274 269 269 247 211 198 198 202 204 207 215 219 219 220 222 222 219 216 216 218 220 216 214 215 218 220 223 224 227 227 226 225 225 224 224 225 225 226 227 226 225 224 224 226 230 233 236 238 241 244 246
338 336 335 330 326 329 330 316 307 311 309 302 294 283 274 261 234 210 197 196 195 193 200 209 210 212 212 210 209 209 210 212 212 210 208 208 209 211 213 215 219 222 223 223 222 222 223 222 221 221 220 219 220 222 225 227 228 230 233 235 238 243 247
328 327 325 319 312 313 316 308 301 301 304 308 307 293 278 263 246 226 207 200 198 195 195 196 193 194 198 201 203 206 208 207 206 207 207 206 206 207 207 207 209 213 217 219 219 219 219 219 220 222 221 219 217 217 220 223 223 223 226 230 236 243 250
314 313 312 310 307 297 287 291 296 296 296 302 300 290 279 262 249 239 220 207 203 199 198 196 190 187 192 198 201 203 204 203 203 205 205 203 204 205 205 203 201 203 208 211 210 211 212 213 215 218 218 219 216 210 208 213 217 221 227 235 245 255 263
306 309 308 305 302 290 275 281 293 301 305 307 295 278 269 256 252 251 235 216 208 203 199 197 193 190 190 194 195 195 197 199 201 201 199 199 201 204 204 201 195 190 191 193 193 197 200 202 204 205 205 207 210 210 210 215 223 233 243 252 262 269 274